GFSSE_sfc_30mbdewp_225.txt.gz
Dewpoint
67 71 72 72 71 71 70 70 70 71 71 71 71 71 71 71 71 72 72 71 71 69 68 68 67 68 68 68 69 69 70 69 68 68 67 67 67 65 65 65 65 64 63
68 70 72 72 71 70 70 70 70 71 70 71 71 71 71 71 71 71 70 71 70 69 68 67 66 67 68 68 69 69 69 68 68 68 67 66 66 66 66 66 65 64 64
69 71 72 71 71 71 71 71 71 71 70 70 71 71 71 71 70 70 70 70 70 68 67 66 65 65 66 66 67 68 68 68 67 67 66 65 66 66 66 66 65 65 64
69 70 71 71 71 71 71 71 71 71 70 70 70 70 71 70 70 70 70 70 69 68 67 65 64 64 64 64 64 64 64 65 67 67 67 64 65 66 66 66 66 65 65
70 70 71 71 71 71 71 71 71 71 70 70 70 70 70 70 69 69 69 69 69 67 67 65 64 63 62 61 62 63 63 63 63 63 64 64 66 65 65 65 66 66 65
70 70 70 70 70 70 71 71 71 70 70 70 70 70 70 70 69 68 68 69 69 67 67 65 64 63 61 61 61 63 63 62 63 62 64 65 67 66 65 65 65 65 65
69 70 70 70 70 70 71 71 71 70 70 70 70 70 70 69 69 68 68 69 69 68 67 65 63 62 61 60 61 62 63 64 64 64 65 66 67 66 65 65 65 65 65
68 69 70 70 70 70 71 71 70 70 70 70 70 70 69 69 68 68 68 68 68 68 67 64 63 62 61 60 61 62 62 63 64 65 65 66 67 66 65 65 65 65 64
68 69 69 70 70 70 70 70 69 69 69 70 69 69 69 68 68 68 68 68 68 67 66 64 63 62 61 60 60 61 61 62 63 66 65 65 67 66 66 65 65 65 64
67 67 68 68 69 69 70 69 69 69 69 69 69 69 69 68 68 68 68 68 68 67 66 64 63 62 61 60 59 60 60 62 64 65 65 66 67 67 66 66 65 65 64
65 66 67 68 67 68 68 69 69 69 69 69 69 69 68 68 67 68 67 68 68 67 66 65 64 63 61 60 59 59 60 63 65 65 65 66 67 67 66 66 66 65 65
64 65 66 67 67 67 68 68 68 69 69 69 69 68 67 67 67 67 67 67 68 67 67 66 64 63 62 60 58 59 59 61 64 64 65 66 67 66 66 67 67 66 65
64 65 66 66 66 67 67 66 67 68 67 67 68 67 67 66 66 66 66 66 67 67 66 66 65 63 62 60 58 57 59 60 63 64 65 66 66 66 65 64 64 66 66
64 65 65 66 66 66 66 66 66 66 66 66 67 66 66 65 64 65 64 65 66 67 66 65 64 63 61 60 58 57 58 59 62 63 64 65 66 66 64 62 62 62 64
64 64 65 65 65 65 65 65 65 66 66 66 66 66 65 64 63 63 64 64 66 65 65 64 63 63 61 60 59 58 57 58 61 63 63 65 64 65 64 62 61 62 63
63 64 65 65 65 65 64 64 64 64 65 64 64 65 65 64 63 63 64 64 65 65 65 64 63 62 61 60 57 57 55 55 59 62 62 63 63 63 63 62 61 62 62
63 63 63 64 65 65 65 64 64 64 64 64 64 64 64 63 63 63 64 64 65 65 64 64 63 62 61 60 58 55 53 52 59 61 61 61 62 62 62 62 63 63 64
63 63 63 64 64 65 65 64 63 63 64 63 63 63 64 65 64 63 64 64 64 64 64 63 63 62 61 60 58 55 52 51 54 59 60 60 61 61 61 62 63 63 63
63 63 63 64 64 64 65 65 64 64 64 64 64 64 64 65 65 64 64 64 64 64 64 63 61 61 59 58 58 55 52 51 51 56 59 59 60 60 60 62 62 62 61
62 64 63 64 64 65 65 65 65 65 65 65 65 65 65 65 66 65 65 65 64 64 64 63 60 56 56 56 55 52 50 50 51 54 56 59 59 59 59 60 61 61 60
63 64 64 64 64 65 65 64 64 64 65 65 66 66 66 66 66 66 65 65 64 63 63 63 61 58 54 51 49 49 48 50 51 52 56 57 58 59 59 59 59 59 59
63 64 64 64 64 65 65 64 64 64 65 65 65 66 66 66 66 65 65 65 65 64 63 62 61 59 56 54 51 50 48 49 49 51 54 56 57 58 57 58 58 58 58
64 64 64 64 64 64 64 63 62 62 62 61 63 63 64 65 65 65 64 64 64 64 63 62 62 61 60 58 54 52 49 47 47 49 51 54 56 56 56 56 57 57 56
60 62 62 63 64 64 63 62 61 59 57 53 58 61 60 62 62 62 62 62 61 61 61 61 61 61 60 59 58 57 55 53 49 48 47 50 54 55 55 55 55 55 55
52 56 56 59 62 62 61 60 58 52 47 47 50 49 47 52 58 60 60 60 59 59 59 59 59 59 58 57 56 56 55 54 53 50 50 50 50 54 55 55 55 53 53
43 47 50 54 55 56 53 53 50 44 43 41 41 44 47 47 49 53 55 55 55 54 54 54 54 55 56 55 54 55 54 52 52 52 50 51 51 51 52 54 55 54 53

GFSSE_sfc_30mbdewp_228.txt.gz
Dewpoint
65 70 70 71 71 71 70 69 70 71 71 71 71 71 71 71 72 72 72 71 71 69 69 68 68 68 68 68 69 69 69 69 69 68 67 65 65 65 65 65 64 64 63
68 71 71 71 71 71 70 70 69 70 71 71 71 71 71 71 72 72 71 71 70 68 68 67 67 68 68 68 68 69 68 68 68 68 66 66 66 66 66 66 65 65 63
69 70 71 71 71 71 71 71 70 70 70 70 71 71 71 71 71 71 71 70 70 68 66 66 66 67 68 68 69 69 68 67 67 67 66 66 66 65 66 66 65 65 64
69 70 70 71 71 71 71 71 70 71 71 71 71 71 71 71 70 70 70 70 69 67 66 65 64 65 66 66 66 67 68 67 68 67 65 65 66 65 66 66 65 65 64
69 69 70 70 71 71 71 71 70 70 70 70 71 71 71 70 70 70 70 69 69 67 66 64 64 64 63 63 63 64 64 64 64 64 66 65 65 65 65 66 66 65 65
68 69 70 70 70 71 71 71 71 70 70 70 70 70 70 70 69 69 69 69 68 67 66 64 64 63 61 61 62 62 62 62 62 62 63 65 66 65 65 65 65 65 65
68 69 70 70 70 70 71 71 70 70 69 69 70 70 70 69 68 68 68 69 68 67 66 64 63 62 61 61 61 62 62 63 63 64 65 66 67 65 65 65 65 65 65
68 68 70 70 70 71 71 70 69 69 69 69 69 69 69 69 68 68 68 68 69 68 66 64 62 62 61 61 61 61 62 63 64 65 65 66 67 66 65 65 65 65 65
69 68 69 70 70 70 70 69 69 69 69 69 69 69 69 68 68 68 68 68 68 67 64 63 62 61 60 60 61 60 60 61 63 65 65 66 67 66 65 65 65 64 64
67 67 68 68 69 69 69 69 68 69 69 69 69 69 68 67 67 67 68 68 68 67 65 63 63 62 61 59 60 60 60 62 63 65 65 65 67 67 66 65 65 65 64
65 66 67 67 67 67 68 69 69 69 69 69 69 69 68 67 67 67 67 68 67 67 65 64 63 62 61 60 59 59 59 62 64 65 65 65 67 67 66 66 66 65 65
64 64 66 66 66 67 67 68 68 69 68 68 68 68 67 67 67 67 67 67 67 67 66 66 65 63 62 60 58 58 58 61 64 64 64 65 67 67 65 67 67 66 66
63 64 65 65 66 66 66 67 67 67 67 68 68 67 67 66 66 66 66 66 67 67 66 66 65 64 62 60 59 57 58 59 63 64 65 66 67 67 66 66 66 66 66
63 63 65 65 65 65 66 66 66 66 66 66 67 66 66 65 65 65 65 64 65 66 66 65 64 63 62 61 60 58 57 58 61 63 64 65 66 66 66 65 64 63 63
63 64 64 65 65 65 65 65 65 65 65 65 66 66 65 64 63 63 64 63 65 65 65 65 64 63 62 61 60 59 57 57 58 61 63 64 65 65 66 64 63 62 62
64 64 64 64 65 65 65 64 64 64 65 65 65 65 65 64 63 62 62 63 64 65 64 64 64 63 62 61 60 57 57 55 56 60 62 63 64 64 64 64 63 62 62
63 64 64 64 64 64 64 64 64 64 64 64 64 64 64 64 63 62 62 63 64 64 64 64 63 63 62 61 60 59 55 54 54 58 60 62 62 63 63 63 63 62 63
63 63 64 65 64 64 64 63 63 63 63 63 63 63 63 63 63 62 62 62 64 64 64 64 63 62 62 61 61 59 57 53 52 55 60 61 61 62 62 62 62 63 63
63 63 63 64 64 64 64 64 63 63 63 62 63 63 63 63 63 62 62 62 63 64 64 63 63 62 61 60 60 60 58 56 53 52 55 58 60 61 61 61 61 62 63
62 63 63 63 63 64 64 64 63 63 63 63 62 63 63 63 64 64 64 64 64 64 64 64 63 61 60 58 57 57 55 54 53 52 53 57 58 59 60 60 60 62 62
61 63 63 63 63 63 63 63 63 63 64 64 64 64 64 65 65 65 65 65 65 64 64 63 62 61 58 54 51 50 50 50 50 50 52 54 56 58 59 59 60 61 61
59 63 63 63 64 63 63 63 63 64 64 65 65 66 66 66 66 66 65 64 64 64 63 63 62 60 58 54 54 51 51 51 50 50 52 54 55 57 58 58 59 59 59
61 63 63 63 64 64 64 64 63 63 63 63 64 64 65 65 65 65 65 64 64 64 63 62 62 61 60 59 57 55 52 49 49 49 50 51 53 55 56 57 57 58 58
62 63 64 64 64 64 64 63 63 63 61 61 62 62 61 63 63 62 62 62 61 61 60 60 61 61 60 58 58 57 56 54 52 50 50 49 52 53 54 55 56 56 57
63 63 64 64 64 64 64 63 61 59 54 54 58 53 54 57 60 60 60 59 59 59 58 58 58 57 57 55 54 54 53 53 53 51 49 51 51 51 53 54 55 55 55
55 59 62 63 63 63 62 61 59 54 51 52 49 49 49 50 54 55 55 54 53 52 52 52 53 54 54 54 54 53 52 52 51 50 48 47 46 49 51 51 54 55 54

GFSSE_sfc_30mbdewp_231.txt.gz
Dewpoint
64 67 70 70 71 71 71 72 72 72 72 72 71 71 72 72 72 72 72 71 71 70 68 68 68 68 68 68 69 69 69 69 68 67 65 66 65 65 65 65 64 63 64
67 68 70 71 71 71 71 71 72 72 72 72 72 72 72 72 72 72 71 71 70 69 68 68 68 68 68 69 69 69 68 68 68 67 67 66 66 66 66 65 65 63 64
67 69 69 71 71 70 70 71 71 72 72 72 71 71 72 72 72 72 71 70 69 68 67 67 68 68 68 68 69 68 68 67 66 66 66 62 63 66 66 66 65 64 64
69 69 68 70 71 70 70 71 71 71 71 71 71 71 71 71 71 71 71 70 69 67 66 66 67 67 68 68 68 68 67 67 67 66 62 63 62 66 66 66 65 65 64
68 69 68 70 70 70 70 70 70 71 71 70 70 70 71 71 71 71 70 69 68 67 65 64 65 65 65 65 65 66 66 67 65 65 65 64 62 65 65 65 65 65 65
67 69 70 70 71 71 71 71 70 70 70 70 70 70 71 71 70 70 70 69 68 67 65 64 64 63 62 62 62 63 62 62 62 62 64 65 64 65 65 65 65 65 66
67 68 69 70 70 70 71 70 70 70 70 70 70 70 70 70 70 69 69 68 68 67 65 64 63 62 61 61 62 61 62 62 61 63 64 65 65 65 65 65 65 65 65
66 68 70 70 70 71 71 70 69 69 69 69 70 70 69 69 68 68 69 68 68 67 65 63 62 61 61 61 61 60 61 62 63 65 65 65 67 66 65 65 64 64 64
67 68 70 69 70 70 70 69 68 68 69 69 69 69 68 67 68 68 68 69 67 65 64 63 62 61 61 61 60 60 60 61 62 64 64 65 67 66 65 65 64 64 64
68 68 69 69 69 69 69 69 68 68 68 68 68 68 68 67 68 68 67 68 67 65 64 63 62 61 60 60 60 59 60 61 61 64 64 64 67 66 66 65 65 64 64
66 66 67 68 68 69 69 69 68 68 68 68 68 68 67 66 66 66 66 67 67 66 64 63 63 62 61 60 59 59 59 60 62 64 64 65 67 67 66 66 66 65 65
64 65 66 67 67 67 67 69 69 68 68 68 67 68 67 66 66 65 66 67 67 66 66 65 64 63 62 61 59 58 57 60 64 65 64 65 67 67 65 66 67 66 65
63 64 65 66 66 67 66 67 68 68 68 68 68 68 67 67 67 65 65 65 66 66 65 66 65 64 63 62 60 59 59 59 62 64 64 65 66 67 67 66 67 67 66
63 64 64 65 66 66 66 66 67 67 67 67 68 67 68 66 66 65 64 64 65 64 65 65 65 65 64 63 62 60 58 59 59 62 63 64 66 66 67 66 65 64 64
62 64 64 65 65 65 65 65 65 66 66 66 66 66 66 66 66 65 64 64 63 64 65 65 65 64 64 63 62 60 60 58 59 59 61 63 64 65 66 66 65 64 63
62 62 64 64 65 65 65 65 65 65 65 65 66 66 68 67 66 65 64 63 63 63 65 66 65 64 64 63 62 61 58 58 57 57 59 62 63 64 65 66 65 64 63
63 62 63 64 66 66 64 64 64 64 64 64 66 67 67 66 65 64 64 62 62 64 65 65 65 65 64 64 63 63 61 58 56 56 58 60 61 62 64 64 64 64 63
63 63 64 64 64 64 65 64 64 64 65 64 65 66 66 66 64 64 63 62 62 64 65 65 65 64 64 64 64 63 62 61 57 56 56 58 59 60 61 63 63 63 63
64 64 64 65 64 65 64 64 64 64 64 64 64 64 64 64 64 63 62 62 63 63 65 64 64 64 63 63 63 62 62 60 60 57 55 55 58 59 59 61 62 62 62
63 64 65 65 65 65 65 64 64 64 64 63 62 63 63 63 63 63 63 63 64 64 64 65 64 64 63 63 60 59 59 58 57 57 57 55 55 56 58 59 60 60 61
61 63 64 64 65 65 64 63 63 62 63 63 63 63 63 63 63 64 64 64 65 64 65 65 65 64 62 59 58 58 55 56 56 54 55 54 54 55 57 58 59 59 59
61 63 63 64 64 64 64 63 61 62 62 61 63 64 64 65 65 65 65 65 65 65 64 64 63 62 60 59 58 52 54 54 55 54 54 54 55 55 55 56 57 58 59
57 62 63 63 64 64 63 63 64 63 64 63 65 65 66 66 67 66 66 65 65 65 64 63 63 61 61 59 58 58 54 52 53 54 53 53 54 54 55 55 56 57 57
57 61 62 63 64 63 63 62 62 60 61 63 65 65 65 66 65 65 64 64 64 62 62 61 62 61 60 58 59 58 58 56 53 50 51 51 52 53 53 54 54 55 55
57 61 63 63 64 64 64 63 63 62 62 63 62 61 61 61 61 61 61 61 60 60 60 60 60 59 58 57 55 54 54 53 52 51 48 46 48 47 46 50 53 54 55
61 62 63 63 63 64 64 64 63 62 60 60 58 58 58 57 58 59 59 59 58 57 57 57 56 56 56 55 54 53 51 50 49 48 45 43 44 42 44 46 42 43 46

GFSSE_sfc_30mbdewp_234.txt.gz
Dewpoint
55 61 70 71 72 72 72 72 71 71 71 71 71 72 72 72 72 72 72 71 71 69 69 69 69 68 68 68 69 69 69 68 68 67 66 66 66 65 65 65 65 61 65
56 61 70 71 71 72 72 72 72 72 72 71 71 72 72 72 72 72 71 71 70 69 68 68 68 68 68 69 69 69 68 67 67 67 66 66 66 65 66 66 65 63 65
59 61 67 71 71 71 72 72 72 72 72 72 72 72 72 72 72 72 71 70 69 68 68 68 68 68 68 68 68 68 67 66 66 66 64 57 61 66 65 66 65 64 64
62 61 63 70 70 71 72 72 72 72 72 72 72 72 72 72 71 71 71 70 69 67 67 68 68 68 68 68 68 67 67 68 67 65 60 58 57 66 65 65 65 65 65
62 60 63 70 70 71 71 71 72 72 71 71 71 71 71 71 71 71 70 69 68 67 66 67 67 67 66 67 67 67 67 67 65 65 62 61 59 64 65 65 63 64 66
63 61 68 70 70 70 71 71 71 71 70 70 71 71 71 71 71 70 69 69 68 66 65 64 64 64 63 63 63 63 63 63 62 59 62 63 62 64 64 64 65 65 66
63 63 67 69 69 70 70 70 70 70 70 70 70 70 71 71 70 69 69 69 67 66 65 63 62 62 61 61 61 61 61 62 60 60 61 63 64 65 65 64 64 64 65
64 66 65 69 70 70 70 70 69 69 69 69 70 70 70 70 69 69 69 68 67 66 65 63 62 61 61 60 60 60 60 60 58 61 62 61 66 65 65 64 64 64 64
66 67 66 67 69 70 70 69 69 69 69 69 69 69 69 68 68 68 68 68 67 65 63 62 62 61 61 60 60 59 60 60 57 57 59 61 65 66 65 64 64 64 64
65 67 67 66 67 68 68 68 68 68 68 69 69 68 67 67 68 68 68 67 66 64 63 62 62 61 61 60 59 59 59 58 56 55 58 63 66 67 66 65 64 64 64
64 65 66 66 66 67 67 67 68 68 68 68 68 67 66 63 64 66 63 66 66 64 63 63 62 61 61 60 59 58 58 53 56 56 57 64 67 67 67 66 65 65 64
62 64 65 66 66 66 65 67 66 66 66 65 65 66 63 62 62 60 63 67 67 65 65 64 63 62 61 58 57 58 54 54 56 57 58 64 66 67 67 66 66 66 65
61 63 64 65 66 66 64 66 65 65 65 65 65 66 63 64 63 61 61 63 63 66 63 64 64 61 60 59 57 57 55 55 53 56 62 64 65 67 67 66 67 67 66
60 61 63 64 66 66 64 66 65 64 65 65 65 66 64 64 63 60 59 59 61 60 61 62 61 63 63 62 61 59 57 54 51 54 60 64 65 66 67 67 66 65 65
60 61 62 63 65 66 65 65 65 64 67 67 66 68 65 62 62 61 60 59 58 60 61 62 63 62 62 62 62 60 56 55 56 55 54 62 64 65 66 66 66 65 64
61 62 63 63 64 65 64 64 65 66 66 67 67 67 67 63 63 61 61 59 58 59 60 63 62 62 62 63 63 62 59 55 55 56 56 59 62 63 64 66 66 66 65
61 62 63 64 65 65 64 64 64 65 65 66 66 67 67 65 64 61 59 58 57 59 63 64 65 64 63 63 63 63 62 60 57 57 57 56 58 61 63 64 65 65 65
60 60 62 63 65 65 64 64 63 63 65 65 66 66 67 65 64 62 59 59 57 60 62 62 63 63 62 62 63 62 63 61 61 59 57 56 56 56 60 61 63 64 64
58 61 61 62 63 65 64 63 63 62 63 62 62 62 64 65 64 61 59 58 60 61 63 64 64 63 61 61 60 60 61 62 61 60 60 58 58 57 56 60 61 62 63
57 61 63 62 62 64 63 63 62 62 61 60 60 60 63 63 63 62 58 60 62 61 63 63 62 63 62 62 60 58 59 60 60 60 60 60 59 57 57 56 58 58 60
55 60 63 64 64 64 63 63 62 61 61 60 60 60 61 60 61 61 60 62 63 62 61 64 64 63 63 63 61 59 58 58 59 58 58 57 57 57 57 57 58 56 56
49 58 62 64 65 65 64 63 62 61 60 60 60 60 61 62 62 62 62 63 64 63 64 66 65 64 63 62 61 58 56 54 54 55 56 55 56 56 55 55 57 57 57
48 54 60 63 64 65 64 63 63 61 60 59 59 59 61 63 64 64 65 65 66 66 65 66 65 64 63 62 60 60 56 51 53 49 52 52 54 53 54 53 54 54 55
50 53 58 60 63 64 64 63 62 59 58 58 58 60 64 65 66 66 66 66 66 66 65 64 64 63 62 60 60 59 58 56 49 46 45 47 49 49 49 48 45 46 49
46 52 56 58 62 63 65 63 62 59 59 59 62 65 66 66 66 66 65 63 62 62 61 61 61 60 60 58 56 54 53 52 52 50 45 40 41 39 40 40 44 43 39
47 55 57 57 60 63 64 64 62 62 60 63 64 63 61 62 62 63 63 63 62 61 61 60 59 57 54 53 52 51 50 48 43 43 40 38 37 37 38 39 38 37 39

GFSSE_sfc_30mbdewp_237.txt.gz
Dewpoint
56 64 71 72 73 73 72 71 71 71 72 72 72 72 72 72 72 72 72 71 70 69 69 69 69 68 68 69 69 69 68 68 68 67 66 66 65 65 66 66 64 63 67
58 64 71 72 72 72 72 71 71 71 72 72 72 72 72 72 72 72 71 71 70 69 68 68 69 69 68 69 69 68 67 67 67 67 66 66 65 65 66 65 65 65 66
59 63 69 71 72 72 72 71 71 72 72 72 72 72 72 72 72 71 71 70 69 68 68 68 68 68 68 68 68 67 66 65 63 64 67 60 61 65 65 65 65 66 66
59 62 66 71 72 72 72 72 72 72 72 72 72 72 72 72 71 71 70 70 69 68 68 68 68 68 67 67 67 66 68 67 66 66 64 58 59 65 65 65 65 65 66
57 60 66 71 72 72 72 72 72 72 72 72 71 72 72 72 71 70 69 69 68 68 67 68 68 68 68 67 67 67 67 66 64 63 62 61 60 63 63 63 61 64 66
57 57 69 70 71 72 72 72 72 71 71 71 71 71 71 71 71 70 69 68 68 67 67 67 66 65 65 65 65 64 63 62 62 58 60 61 61 64 64 64 64 65 66
56 59 68 70 71 71 72 72 71 71 70 70 71 71 71 71 70 69 69 68 67 66 65 64 63 62 62 62 62 61 61 61 58 55 56 63 63 64 64 63 63 64 65
56 63 64 69 70 71 71 71 70 70 69 70 70 70 71 70 69 69 69 68 67 66 65 63 62 61 60 60 60 60 60 59 57 56 57 65 65 65 64 63 63 63 63
60 63 64 66 68 70 70 70 69 69 69 69 69 70 70 69 69 69 68 68 67 65 64 62 61 61 61 60 60 59 59 58 56 54 55 63 66 66 65 64 64 63 63
62 63 63 63 64 67 69 69 68 68 68 69 69 68 68 68 68 68 68 67 66 64 63 62 61 61 61 60 59 58 58 58 55 52 54 64 66 66 66 64 64 64 63
63 63 63 62 63 64 64 67 68 68 68 68 68 68 66 62 64 66 63 66 65 64 63 62 62 61 60 60 59 58 58 54 53 53 60 66 66 66 67 66 65 65 64
61 63 63 63 64 65 63 65 65 65 65 65 65 66 62 61 61 59 63 66 65 64 64 63 62 62 61 58 58 57 55 52 52 54 63 65 66 67 67 66 66 66 65
62 62 62 64 65 65 63 65 63 63 63 64 64 65 62 61 61 58 63 62 63 64 62 63 63 61 59 58 55 55 53 53 50 53 63 64 65 66 67 67 66 67 66
61 61 61 63 66 66 63 65 63 63 64 64 64 66 64 62 61 59 58 57 58 60 60 62 62 63 61 61 60 58 57 54 49 51 61 62 64 65 66 67 67 66 65
59 61 61 62 65 66 64 63 63 63 63 63 64 66 63 61 61 60 58 57 58 58 59 59 62 60 61 61 61 60 56 54 53 52 53 61 63 64 66 66 66 66 66
57 60 61 61 64 64 64 64 64 63 62 65 62 64 66 62 62 60 58 58 57 57 58 59 59 61 61 61 61 61 59 56 54 55 55 61 61 62 64 66 66 66 66
56 59 60 61 63 65 64 63 63 62 65 67 66 68 67 64 62 62 59 59 57 57 58 60 61 60 62 62 61 63 62 60 57 58 58 57 60 60 61 63 64 66 66
56 58 61 61 63 65 64 62 62 63 64 66 65 67 68 65 62 63 59 58 57 57 59 60 61 62 63 62 62 62 63 60 62 59 58 57 56 56 60 61 62 63 65
54 58 61 62 62 64 64 62 63 62 63 62 64 64 66 65 62 62 58 58 58 57 58 60 62 63 63 62 60 63 63 63 60 59 59 58 58 58 57 60 61 61 62
52 58 61 63 63 65 64 64 62 61 62 61 61 60 64 65 63 62 58 58 59 58 61 63 61 62 60 59 58 58 59 60 61 61 60 60 60 60 59 58 60 60 60
50 56 61 61 63 65 63 62 61 60 60 60 59 59 61 63 63 64 59 59 61 61 63 63 62 61 62 63 61 59 60 59 60 60 60 59 59 58 59 58 59 58 58
45 55 59 61 62 63 63 61 59 59 59 59 58 60 61 64 63 62 61 60 63 61 63 63 63 62 62 63 60 59 54 54 58 57 55 54 57 55 55 55 56 55 55
44 51 58 61 62 63 62 61 61 61 61 59 59 59 60 62 62 62 62 63 65 65 64 64 65 64 62 63 63 60 56 51 50 50 52 50 54 52 52 51 51 49 48
43 48 56 60 61 64 64 61 62 60 59 59 59 59 60 61 62 63 63 65 65 65 65 65 66 65 64 61 61 60 59 57 51 43 43 46 46 46 47 48 44 42 43
43 49 52 57 60 63 65 64 63 61 60 58 59 59 60 62 64 64 66 66 67 67 65 64 64 63 62 60 59 57 55 52 52 48 42 42 40 39 38 38 41 42 39
39 50 53 56 57 62 66 66 64 63 60 59 59 59 63 65 67 67 67 66 64 63 62 62 62 62 60 57 52 51 49 46 42 42 42 39 35 36 36 38 39 39 40